Home > Weather > Bournemouth > Past weeks

Flag for United Kingdom Past Weather in Bournemouth, England, United Kingdom — Yesterday and Last 2 Weeks

Now
64 °F

Passing clouds.


Feels Like: 64 °F
Forecast: 60 / 70 °F
Wind: 9 mph from Southwest

Location: Bournemouth Airport

Current Time: Aug 27, 2016 at 11:30:11 PM

Latest Report: Aug 27, 2016 at 10:50 PM


Visibility: N/A

Pressure: 29.89 "Hg

Humidity: 88%

Dew Point: 61 °F

Location of BournemouthLocation

Past Weather in Bournemouth — Graph

°F

Bournemouth Temperature Yesterday

Maximum temperature yesterday: 77 °F (at 1:50 PM)
Minimum temperature yesterday: 57 °F (at 6:20 AM)
Average temperature yesterday: 69 °F

High & Low Weather Summary for the Past Weeks

 TemperatureHumidityPressure
High86 °F (Aug 24, 3:20 PM)100% (Aug 14, 5:50 AM)30.27 "Hg (Aug 14, 5:50 AM)
Low45 °F (Aug 15, 5:50 AM)35% (Aug 17, 10:50 AM)29.65 "Hg (Aug 19, 1:50 PM)
Average67 °F74%30.02 "Hg
* Reported Aug 12 10:20 PM — Aug 27 10:20 PM, Bournemouth, Weather by CustomWeather, © 2016

Note: Actual official high and low records may vary slightly from our data, if they occured in-between our weather recording intervals... More about our weather records

Advertising

Bournemouth Weather History for the Previous 24 Hours

Scroll right to see more
 ConditionsComfort  
Time TempWeatherWind HumidityBarometerVisibility
10:20 PM
Sat, Aug 27
64 °FPassing clouds.2 mph88%29.89 "HgN/A
9:50 PM66 °FPassing clouds.2 mph88%29.89 "Hg5 mi
9:20 PM66 °FPassing clouds.2 mph88%29.89 "Hg6 mi
8:20 PM66 °FScattered clouds.3 mph88%29.89 "Hg6 mi
7:50 PM66 °FPassing clouds.5 mph88%29.89 "Hg6 mi
7:20 PM68 °FClear.6 mph83%29.89 "Hg6 mi
6:50 PM70 °FClear.6 mph83%29.89 "Hg6 mi
6:20 PM70 °FClear.5 mph83%29.89 "Hg6 mi
5:50 PM70 °FClear.5 mph78%29.89 "Hg6 mi
5:20 PM70 °FPassing clouds.7 mph83%29.92 "Hg4 mi
4:50 PM72 °FHaze.7 mph78%29.92 "Hg3 mi
4:20 PM70 °FPartly sunny.6 mph78%29.92 "Hg3 mi
3:50 PM72 °FPartly sunny.12 mph78%29.92 "Hg3 mi
3:20 PM72 °FPartly sunny.12 mph78%29.92 "Hg5 mi
2:50 PM72 °FPartly sunny.12 mph78%29.92 "Hg5 mi
2:20 PM72 °FOvercast.8 mph78%29.92 "HgN/A
1:50 PM72 °FSprinkles. Overcast.7 mph73%29.92 "HgN/A
1:20 PM73 °FPartly sunny.6 mph69%29.95 "HgN/A
12:50 PM73 °FPartly sunny.8 mph69%29.95 "HgN/A
12:20 PM73 °FPartly sunny.7 mph69%29.95 "HgN/A
11:50 AM72 °FScattered clouds.9 mph69%29.95 "HgN/A
11:20 AM72 °FScattered clouds.8 mph69%29.98 "HgN/A
10:50 AM70 °FScattered clouds.8 mph73%29.98 "HgN/A
10:20 AM70 °FPartly sunny.8 mph69%29.98 "HgN/A
9:50 AM66 °FPartly sunny.6 mph73%30.01 "HgN/A
9:20 AM66 °FPartly sunny.6 mph73%30.01 "HgN/A
8:50 AM64 °FPartly sunny.6 mph78%30.01 "HgN/A
8:20 AM63 °FPartly sunny.5 mph77%30.01 "HgN/A
7:50 AM61 °FScattered clouds.5 mph77%30.01 "HgN/A
7:20 AM61 °FSunny.5 mph77%30.04 "Hg10 mi
6:50 AM59 °FClear.6 mph77%30.04 "Hg10 mi
6:20 AM57 °FClear.5 mph82%30.04 "Hg10 mi
1:20 AM55 °FClear.6 mph77%30.09 "Hg10 mi
12:50 AM55 °FClear.6 mph77%30.09 "Hg10 mi
Weather by CustomWeather, © 2016

See weather overviewHow to use our weather pages